Content
SEND FEEDBACK

Daily
Averages
Monthly
Summary
United States of America

NEW YORK - CENTRAL PARK, NEW YORK


Home > North America > United States > New York
Elevation: 14 feet     Latitude: 40 47N     Longitude: 073 58W

WEATHER
 
SELECT A DAY
Number of Records: 153,223;   Date Range: 11/1/95 - 12/25/14
 
SHARE

PRINT THIS DATA

[ ← Previous Day ]
WEATHER ALMANAC - AUGUST 7, 2014
[ Next Day → ]
[ °C ]   °F
Weather ElementAverageHighLow
Temperature74.2 °F82.9 °F (3:51 pm)66 °F (5:51 am)
Dewpoint51 °F55.9 °F (3:51 pm)46 °F (5:51 pm)
Humidity45.4 %63 % (5:51 am)30 % (4:51 pm)
Barometer29.94 in30.02 in (11:51 pm)29.90 in (1:51 am)
Wind Speed4.4 mph10.4 mph (4:51 pm)
Wind Gust21.9 mph (6:51 pm)
Weather ElementAverage
Visibility10 mi
Wind DirectionENE (78.8 °)

Weather ElementTotal
Precipitation---
Cooling Degree Days9.5 (Base 65)
Growing Degree Days24.5 (Base 50)
Averaged from 24 records on August 7, 2014
WEATHER CONDITIONS BREAKOUT
WIND DIRECTION BREAKOUT
WEATHER BY HOUR - AUGUST 7, 2014
[ °C ]   °F
Local TimeTemperatureDewpointHumidityBarometerVisibilityWind DirectionWind SpeedGust SpeedPrecipitationEventsConditions
12:51 AM71.1 °F55.9 °F59 %29.90 in10.0 miNNW (340°)3.5 mphClear
1:51 AM71.1 °F54.0 °F55 %29.91 in10.0 miVariable3.5 mphClear
2:51 AM70.0 °F54.0 °F57 %29.91 in10.0 miWNW (300°)6.9 mphClear
3:51 AM69.1 °F53.1 °F57 %29.91 in10.0 miVariable5.8 mphClear
4:51 AM66.9 °F53.1 °F61 %29.91 in10.0 miCalmClear
5:51 AM66.0 °F53.1 °F63 %29.92 in10.0 miVariable4.6 mphClear
6:51 AM66.0 °F52.0 °F60 %29.94 in10.0 miCalmClear
7:51 AM66.9 °F52.0 °F59 %29.94 in10.0 miVariable3.5 mphClear
8:51 AM69.1 °F52.0 °F54 %29.96 in10.0 miWNW (290°)4.6 mphClear
9:51 AM73.0 °F53.1 °F49 %29.94 in10.0 miVariable3.5 mphClear
10:51 AM75.9 °F55.0 °F48 %29.94 in10.0 miVariable4.6 mphClear
11:51 AM80.1 °F53.1 °F39 %29.94 in10.0 miVariable3.5 mphClear
12:51 PM81.0 °F53.1 °F38 %29.93 in10.0 miVariable3.5 mphPartly Cloudy
1:51 PM82.0 °F53.1 °F37 %29.92 in10.0 miVariable5.8 mphScattered Clouds
2:51 PM82.9 °F52.0 °F34 %29.91 in10.0 miNorthClear
3:51 PM81.0 °F48.9 °F33 %29.91 in10.0 miWNW (300°)8.1 mphScattered Clouds
4:51 PM81.0 °F46.9 °F30 %29.91 in10.0 miWNW (300°)10.4 mphScattered Clouds
5:51 PM80.1 °F46.0 °F30 %29.92 in10.0 miVariable5.8 mph20.7 mphMostly Cloudy
6:51 PM79.0 °F46.9 °F32 %29.94 in10.0 miNorth (360°)8.1 mph21.9 mphPartly Cloudy
7:51 PM77.0 °F46.0 °F33 %29.96 in10.0 miVariable3.5 mphScattered Clouds
8:51 PM75.0 °F46.0 °F36 %29.99 in10.0 miVariable6.9 mphClear
9:51 PM73.9 °F46.9 °F38 %30.00 in10.0 miCalmClear
10:51 PM72.0 °F48.0 °F43 %30.01 in10.0 miCalmClear
11:51 PM71.1 °F48.9 °F45 %30.02 in10.0 miVariable4.6 mphClear
Hourly data recorded from KNYC, located miles away from New York - Central Park, New York







STORIES FROM OUR PARTNERS